Location: Roland
(31.1349°N, 85.4372°W)
Time: 22:00:42
(UTC+00:00)

Tiros 1 - Pass Details

Date: 22 April 2021
Orbit: 630 x 664 km, 48.4° (Epoch: 05 May)

Event Time Altitude Azimuth Distance (km) Brightness Sun altitude
Rises 15:26:34 0° 287° (WNW) 2,935 10.2 54.0°
Reaches altitude 10° 15:30:15 10° 317° (NW) 2,019 9.5 54.7°
Maximum altitude 15:32:17 13° 343° (NNW) 1,845 9.4 55.1°
Drops below altitude 10° 15:34:19 10° 9° (N) 2,014 9.7 55.5°
Sets 15:37:59 0° 39° (NE) 2,918 10.6 56.2°
